Location: Unspecified
(41.1637°N, 24.2901°E)
Time: 16:30:16
(UTC+01:00)

ISS - Pass Details

Date: 12 March 2026
Orbit: 417 x 426 km, 51.6° (Epoch: 16 March)

Event Time Altitude Azimuth Distance (km) Brightness Sun altitude
Rises 18:55:03 0° 240° (WSW) 2,372 0.8 -17.5°
Reaches altitude 10° 18:57:09 10° 244° (WSW) 1,509 -0.2 -17.9°
Maximum altitude 19:00:31 65° 326° (NW) 471 -3.4 -18.5°
Enters shadow 19:01:35 39° 33° (NNE) 653 -3.0 -18.7°
